User: anonymous   Login
Location: Arborea
(39.7744°N, 8.5819°E)
Time: 22:26:43
(UTC+00:00)
Language:

Cosmos 2333 Rocket - Orbit

View from above orbital plane
View from above orbital plane
View from above satellite
View from above satellite

Ground track
Ground track

The orbit data is extracted from the following two-line orbital elements,

1 24298U 96051B   22020.50861205 -.00000047  00000-0  10572-5 0  9991
2 24298  70.8202 123.0153 0018483 215.7575 144.2309 14.12402826308809
Epoch (UTC): 20 January 2022 12:12:24
Eccentricity: 0.0018483
inclination: 70.8202°
perigee height: 838 km
apogee height: 864 km
right ascension of ascending node: 123.0153°
argument of perigee: 215.7575°
revolutions per day: 14.12402826
mean anomaly at epoch: 144.2309°
orbit number at epoch: 30880

The dashed part of the orbit path shows where the satellite is in the earth's shadow,  

DLR